RH
41 42 43 44 46 47 47 47 46 46 46 46 47 48 50 50 49 46 44 42 40 39 39 38 37 37 37 36 36 35 33 32 30 27 25 23 20 18
45 46 47 48 49 50 52 53 53 52 51 52 53 54 54 54 53 51 49 46 45 43 42 41 40 39 38 37 36 34 32 31 29 27 25 23 21 19
45 47 50 52 53 54 55 56 55 53 53 55 56 57 55 55 52 50 49 49 47 46 44 43 42 40 39 38 35 33 30 27 24 23 23 22 21 19
50 50 51 52 54 56 56 55 54 52 50 51 52 53 53 54 55 54 53 52 50 47 46 45 43 42 40 40 38 35 31 27 23 21 21 19 18 18
41 41 41 42 42 43 46 48 51 51 47 48 48 49 56 57 56 56 55 53 51 49 47 45 45 42 41 40 39 37 34 31 26 23 20 17 16 15
37 35 37 37 37 39 41 45 47 49 48 48 48 49 53 61 61 59 54 53 51 48 47 45 45 44 42 40 40 39 36 32 29 25 21 17 14 12
39 40 42 42 44 43 43 46 51 53 53 51 51 52 57 59 57 51 48 46 44 45 44 44 46 46 44 41 41 40 37 34 29 25 22 17 13 12
36 38 38 40 43 45 47 49 51 54 57 56 59 63 66 58 51 58 51 46 47 52 49 47 48 47 45 43 39 38 35 32 29 26 22 16 12 11
32 33 34 40 41 47 49 51 53 54 58 63 68 71 64 68 67 58 59 57 53 49 52 52 51 48 45 41 40 37 33 30 27 23 19 13 11 11
30 34 38 42 46 50 53 57 61 60 61 66 71 70 74 72 62 66 65 66 60 61 57 55 53 45 40 41 39 34 32 29 24 20 15 13 12 11
31 33 39 42 47 55 56 61 64 65 69 73 76 76 71 65 65 72 72 66 63 63 61 54 52 45 39 36 37 31 25 22 20 18 16 14 13 12
29 35 42 46 50 57 60 66 67 72 77 78 78 78 79 79 82 77 75 72 67 66 66 61 53 49 44 38 35 30 25 23 21 19 16 15 14 12
29 32 39 49 52 59 66 65 70 79 78 84 85 80 82 78 71 77 76 73 63 62 62 59 55 49 44 39 34 30 26 21 19 18 15 14 13 12
33 36 41 49 54 59 66 69 72 73 77 80 80 82 82 82 90 87 78 74 71 65 63 59 58 53 47 39 34 28 25 22 19 17 15 12 11 10
40 40 44 51 58 61 66 72 78 74 74 81 83 83 85 92 87 80 80 76 71 73 66 60 52 46 41 38 33 28 25 22 20 17 15 13 11 10
46 47 50 51 58 63 68 73 80 75 73 81 86 92 92 90 88 84 83 83 79 64 63 55 48 44 38 34 30 27 22 19 16 14 14 13 13 12
52 55 59 58 59 65 68 76 79 78 78 84 94 95 98 96 94 95 92 82 69 66 59 49 44 37 34 29 26 23 20 16 15 15 15 14 13 12
59 60 59 61 67 73 77 81 86 89 89 91 97 98 98 97 97 95 88 81 74 63 51 45 39 36 30 26 21 19 17 17 17 16 15 13 14 14
63 65 64 64 70 80 85 88 91 98 99 99 97 98 98 99 98 95 87 77 70 56 45 41 37 31 25 22 21 20 19 20 19 18 16 16 16 16
67 71 69 70 77 86 89 91 98 99 98 98 99 98 98 98 98 93 86 75 62 52 47 39 32 29 25 24 23 22 22 21 19 19 18 19 20 20
71 76 77 79 83 88 92 97 98 98 98 99 99 98 98 97 98 93 85 76 63 50 40 34 29 28 26 25 25 24 23 23 23 23 22 22 23 24
79 81 83 86 88 93 98 99 98 99 99 99 99 99 98 98 97 92 85 76 61 45 38 38 32 28 29 28 26 24 25 26 26 25 25 25 26 26
84 83 87 91 95 99 99 98 98 99 99 99 99 99 99 99 98 93 87 77 57 48 43 39 33 32 32 29 25 25 26 28 27 26 28 30 32 33